Location: Northwest Suburban Astronomers
(42.1100°N, 88.0300°W)
Time: 20:57:26
(UTC-05:00)

Daily predictions for brighter satellites

Satellite Brightness Start Highest point End
(mag) Time Altitude Azimuth Time Altitude Azimuth Time Altitude Azimuth
Abrixas 4.4 21:06:22 10° SSE 21:06:59 11° SE 21:07:35 10° ESE
Okean 3 Rocket 3.6 21:04:06 10° S 21:08:34 72° E 21:13:02 10° NNE
CZ-4B DEB 2.5 21:06:07 10° SSE 21:09:04 76° ENE 21:12:03 10° N
Cosmos 1741 Rocket 4.1 21:06:23 10° SSW 21:11:42 89° WNW 21:17:03 10° NNE
H-2A R/B 3.6 21:08:43 10° ESE 21:12:53 24° ENE 21:17:06 10° NNE
Helios 1B rocket 2.5 21:09:41 10° NNE 21:13:51 88° W 21:17:59 10° SSW
Cosmos 2227 4.5 21:09:08 10° S 21:14:36 48° ESE 21:20:03 10° NE
Cosmos 1766 Rocket 4.0 21:13:13 10° SSE 21:17:17 41° E 21:21:23 10° NNE
Cosmos 1818 3.9 21:12:57 10° NW 21:18:20 63° WSW 21:23:40 10° SSE
YAOGAN 6 2.7 21:16:42 10° S 21:20:20 83° WSW 21:24:03 10° NNW
Cosmos 2084 3.9 21:16:35 10° SW 21:20:32 60° NW 21:24:20 10° NNE
ERBS 3.6 21:19:28 10° NNW 21:22:33 32° NE 21:25:38 10° ESE
Cosmos 371 Rocket 4.3 21:18:47 10° N 21:23:08 33° ENE 21:27:15 11° SE
Cosmos 2297 Rocket 4.2 21:21:26 10° WSW 21:26:30 33° WNW 21:31:37 10° N
Helios 1A 3.9 21:23:38 10° S 21:27:38 48° W 21:31:40 10° NNW
Cosmos 1726 2.9 21:25:07 10° N 21:28:32 35° ENE 21:31:25 13° SE
USA 245 4.2 21:28:04 12° SE 21:30:59 36° ENE 21:35:00 10° N
H-2A R/B 4.3 21:32:35 10° ENE 21:33:35 11° ENE 21:34:35 10° NE
Cosmos 2263 Rocket 3.3 21:29:21 10° SSE 21:33:39 23° ESE 21:37:58 10° NE
GPS 2-05 Rocket1 4.3 21:32:01 10° SSW 21:34:01 16° SSE 21:34:46 15° SSE
ATLAS 5 CENTAUR R/B 3.1 21:30:59 10° WSW 21:35:29 46° NW 21:40:26 10° NNE
Cosmos 1300 3.5 21:34:43 10° N 21:38:17 36° ENE 21:40:57 16° SE
Meteor 1-29 4.0 21:35:29 10° N 21:38:48 48° WNW 21:42:08 10° SSW
Lacrosse 5 1.9 21:33:50 10° NW 21:38:56 81° NE 21:43:10 15° SE
SPOT 5 3.3 21:35:37 13° SE 21:39:52 52° ENE 21:44:51 10° N
Cosmos 1356 Rocket 3.8 21:35:52 10° SSW 21:40:07 72° W 21:44:26 10° N
Resurs 01 Rocket 4.4 21:38:11 10° WSW 21:40:22 13° W 21:42:32 10° WNW
Cosmos 2228 Rocket 3.8 21:37:02 10° N 21:41:21 39° ENE 21:44:39 16° SE
Cosmos 1814 Rocket 4.3 21:38:48 10° NNW 21:44:04 55° ENE 21:48:13 16° SE
Abrixas rocket 2.6 21:42:13 10° WNW 21:45:26 59° NNE 21:47:59 15° ESE
Meteor 1-21 Rocket 4.4 21:41:37 10° SSW 21:47:17 75° W 21:52:53 10° N
SL-14 R/B 3.7 21:44:49 13° SSE 21:48:03 44° E 21:51:49 10° NNE
Cosmos 1459 Rocket 4.2 21:42:33 10° NNW 21:48:50 73° W 21:54:59 10° S
Cosmos 2058 4.3 21:47:51 16° SE 21:49:46 22° E 21:53:03 10° NE
Cosmos 841 Rocket 4.2 21:46:42 10° N 21:51:38 39° ENE 21:55:13 17° SE
Cosmos 1763 Rocket 3.8 21:47:25 10° N 21:52:23 50° ENE 21:55:57 18° SE
RESURS DK-1 2.4 21:48:30 10° NNW 21:52:42 86° WSW 21:55:44 18° SSE
Cosmos 1486 Rocket 4.3 21:48:16 10° S 21:53:15 45° ESE 21:58:18 10° NNE
Cosmos 220 Rocket 4.1 21:49:19 10° S 21:53:39 58° ESE 21:57:58 10° NNE
EO 1 Delta rocket 4.1 21:51:25 17° SSE 21:54:53 52° ENE 21:59:26 10° N
SL-08 RB Rocket 3.8 21:53:52 17° SSE 21:57:21 67° ENE 22:01:57 10° N
Cosmos 1328 3.9 21:56:12 14° S 21:59:29 61° E 22:03:29 10° NNE
H-2A ROCKET BODY 3.9 21:56:19 10° S 21:59:45 19° SE 22:07:21 10° E
Cosmos 1674 4.5 21:59:23 10° SW 22:02:46 31° WNW 22:06:09 10° NNW
Meteor 2-2 Rocket 4.3 21:57:10 10° N 22:03:00 83° E 22:07:51 16° SSE
Cosmos 1603 3.8 21:59:01 10° NNW 22:04:40 73° WSW 22:09:01 17° SSE
MetOp-A 4.5 22:00:44 11° S 22:05:49 65° WSW 22:11:09 10° NNW
SPOT 1/Viking Rocket 3.6 22:04:06 19° SSE 22:07:48 70° ENE 22:12:56 10° N
Cosmos 2123 Rocket 3.9 22:01:39 10° S 22:07:49 82° E 22:14:03 10° N
Terra 2.8 22:07:16 20° ESE 22:09:54 34° ENE 22:14:12 10° N
ARGOS 3.3 22:05:26 15° S 22:10:02 77° WSW 22:15:28 10° NNW
Cosmos 1455 3.9 22:08:20 10° NNE 22:11:15 20° ENE 22:12:26 18° E
Cosmos 332 Rocket 4.1 22:09:24 10° NNW 22:14:16 67° WSW 22:17:42 19° S
USA 234 3.2 22:11:58 10° NE 22:18:29 66° SE 22:24:58 10° SW
Cosmos 1943 3.2 22:13:02 10° NNW 22:18:43 75° ENE 22:22:12 24° SSE
SL-16 R/B 4.4 22:16:56 10° WNW 22:20:40 18° W 22:24:24 10° SW
Cosmos 2151 3.1 22:19:26 25° SSE 22:21:46 59° E 22:26:01 10° NNE
Cosmos 2285 Rocket 4.5 22:19:50 10° N 22:25:59 49° ENE 22:29:42 23° SE
ERS-1 Rocket 4.5 22:22:23 10° SSW 22:26:50 31° W 22:31:19 10° NW
Cosmos 1725 Rocket 4.2 22:24:01 10° NNW 22:30:14 70° W 22:35:04 17° S
Tiangong 1 0.5 22:28:34 10° W 22:31:21 77° SSW 22:31:32 71° SSE
Cosmos 1500 Rocket 3.7 22:34:24 20° SSW 22:37:27 76° W 22:41:55 10° N
SL-19 R/B 4.5 22:33:28 10° NNE 22:38:40 48° E 22:41:12 29° SSE
Cosmos 1503 Rocket 4.0 22:36:35 25° S 22:39:30 60° ESE 22:44:36 10° NNE
Abrixas 2.6 22:38:39 10° WSW 22:40:46 50° WSW 22:40:46 50° WSW
CARTOSAT-1 3.5 22:46:25 39° SSE 22:48:00 83° ENE 22:52:20 10° N
Cosmos 540 Rocket 3.7 22:43:45 10° NNW 22:48:52 59° ENE 22:50:56 34° SE
CZ-4B R/B 4.2 22:44:17 10° NNE 22:49:13 39° E 22:50:35 33° SE
Cosmos 1703 3.2 22:48:32 38° S 22:49:58 89° E 22:53:59 10° N
H-2A R/B 2.8 22:48:34 21° SSW 22:51:55 49° W 22:57:12 10° NNW
Cosmos 1464 Rocket 4.3 22:49:52 10° N 22:55:53 52° ENE 22:58:31 32° SE
SS 1 4.5 22:53:44 10° NW 22:56:40 85° NE 22:56:44 83° ESE
Cosmos 1805 Rocket 3.8 22:55:56 43° SE 22:56:48 51° E 23:01:01 10° NNE
IGS 5A 3.4 22:55:39 44° S 22:56:57 83° WSW 23:01:08 10° NNW
ERBS 3.8 22:56:17 10° WNW 22:59:06 25° SW 22:59:06 25° SW
Cosmos 1626 2.4 22:58:41 37° SSW 22:59:56 63° W 23:03:39 10° N
CZ-4C R/B 2.6 22:59:53 35° SE 23:00:31 36° ESE 23:05:45 10° NE
Cosmos 1633 Rocket 4.0 23:00:57 30° E 23:01:14 31° E 23:05:04 10° NNE
Cosmos 1151 Rocket 3.8 22:57:20 10° NNW 23:01:32 45° W 23:03:28 27° SSW
Cosmos 2278 Rocket 4.3 23:05:40 10° E 23:05:40 10° E 23:06:14 10° E
H-2A R/B 2.0 23:07:51 48° S 23:09:00 78° WSW 23:13:15 10° NNW
Delta 2 Rocket 4.4 23:07:46 10° WSW 23:13:15 44° S 23:13:58 42° SSE
SWAS 4.3 23:12:45 47° SSW 23:13:57 85° ESE 23:18:18 10° NNE
Cosmos 2263 Rocket 3.0 23:11:49 10° SW 23:17:11 49° WNW 23:22:38 10° NNE
Lacrosse 5 3.7 23:18:08 10° W 23:21:18 17° WSW 23:22:21 16° SW
Abrixas rocket 4.4 23:19:21 10° W 23:20:36 17° WSW 23:20:36 17° WSW
Tsikada Rocket 4.3 23:28:52 39° SE 23:30:51 53° E 23:36:58 10° NNE
CZ-2C R/B 4.1 23:28:54 30° ESE 23:30:55 39° ENE 23:36:08 10° N
COSMOS 2406 3.6 23:26:03 10° NNW 23:31:38 54° ENE 23:33:34 37° ESE
Cosmos 1470 Rocket 4.4 23:33:18 35° E 23:33:18 35° E 23:37:18 10° NNE
Cosmos 2242 Rocket 3.9 23:34:03 10° N 23:38:35 55° E 23:39:05 52° ESE
Cosmos 292 Rocket 4.1 23:38:03 10° N 23:42:44 53° ENE 23:43:34 46° ESE
Cosmos 1455 3.8 23:43:40 10° NNW 23:46:55 26° W 23:47:26 25° WSW
Terra 3.4 23:46:09 22° SW 23:47:41 26° W 23:51:38 10° NW
Cosmos 1844 Rocket 2.6 23:49:03 54° SSE 23:50:12 69° ESE 23:55:46 10° NNE
Sich 1 3.3 23:51:22 51° WSW 23:51:59 58° W 23:56:13 10° N
